カタログに戻る

COSMOS 628

運用中軍事PO
NORAD 7094·PAYLOAD·🇷🇺 Russia

打ち上げ Jan 17, 1974 から Plesetsk Cosmodrome

Loading…

次のパス (今後24時間)

TLE

最新Source: Space-Track

元期: Sep 14, 2026, 09:02 UTC

1 07094U 74001A   26257.37672442  .00000049  00000-0  35181-4 0  9994
2 07094  82.9539 115.6506 0035237 251.8369 281.5185 13.75973982642844

AllMySatでCOSMOS 628をリアルタイム追跡

Download on the App Store